Weather in Buzovna

Azerbaijan     40°31′03″N   50°06′45″E
temp.,
°C
wind,
m/s
gust,
m/s
humid.,
%
clouds,
%
prec.,
mm/h
press.,
hPa
HPBL,
m
13 may, thu
thu1301:00+15nnw45645 0.0 1015184
04:00+14n3469100 0.0 1015171
07:00+15n116418 0.0 1016120
10:00+20ssw444570 0.0 1016297
13:00+23ssw45390 0.0 1015329
16:00+26s45320 0.0 1014416
19:00+24s45360 0.0 1014239
22:00+21ssw44500 0.0 1015122
14 may, fri
fri1401:00+20s22554 0.0 101459
04:00+20sse23520 0.0 101443
07:00+20s34545 0.0 101698
10:00+25sse34365 0.0 1016290
13:00+28se46203 0.0 1016699
16:00+29se79151 0.0 1015738
19:00+27se57195 0.0 1015358
22:00+24se24252 0.0 1015149
15 may, sat
sat1501:00+22s22305 0.0 101541
04:00+21ssw112857 0.0 101411
07:00+23ene112196 0.0 101515
10:00+27se231471 0.0 1015319
13:00+30sse45126 0.0 10141163
16:00+30sse45130 0.0 10131296
19:00+29sse33180 0.0 1013535
22:00+27s112111 0.0 101369
16 may, sun
sun1601:00+25e22230 0.0 101323
04:00+23s11250 0.0 101211
07:00+24e11240 0.0 101216
10:00+27ssw33200 0.0 1012413
13:00+29ssw44180 0.0 1012617
16:00+30s55180 0.0 1010723
19:00+27s56220 0.0 1010336
22:00+24s46310 0.0 1010209
17 may, mon
mon1701:00+22s46400 0.0 1009157
04:00+21s46420 0.0 1009149
07:00+21s58420 0.0 1009196
10:00+24s69342 0.0 1009378
13:00+26s7102517 0.0 1008541
16:00+27s710264 0.0 1007531
19:00+25s710310 0.0 1007338
22:00+23ssw61037100 0.0 1007242